Home   Weather   Noumea   Past weeks

Flag for New Caledonia Past Weather in Noumea, New Caledonia, New Caledonia — Yesterday and Last 2 Weeks

Now
84 °F

Partly sunny.


Feels Like: 87 °F
Forecast: 75 / 84 °F
Wind: 3 mph from Northeast

Location: La Tontouta Nlle-Caledonie

Current Time: Feb 27, 2017 at 10:53:51 am

Latest Report: Feb 27, 2017 at 10:00 am


Visibility: N/A

Pressure: 29.92 "Hg

Humidity: 58%

Dew Point: 68 °F

Location of NoumeaLocation

Past Weather in Noumea — Graph

°F

Noumea Temperature Yesterday

Maximum temperature yesterday: 84 °F (at 11:30 am)
Minimum temperature yesterday: 68 °F (at 2:00 am)
Average temperature yesterday: 75 °F

High & Low Weather Summary for the Past Weeks

 TemperatureHumidityPressure
High90 °F (Feb 20, 1:30 pm)100% (Feb 14, 9:30 pm)29.92 "Hg (Feb 14, 9:30 pm)
Low63 °F (Feb 25, 6:00 am)51% (Feb 24, 3:00 pm)29.65 "Hg (Feb 16, 1:30 pm)
Average78 °F82%29.79 "Hg
* Reported Feb 12 9:00 am — Feb 27 9:30 am, Noumea, Weather by CustomWeather, © 2017

Note: Actual official high and low records may vary slightly from our data, if they occured in-between our weather recording intervals... More about our weather records

Advertising

Noumea Weather History for the Previous 24 Hours

Scroll right to see more
 ConditionsComfort  
Time TempWeatherWind HumidityBarometerVisibility
9:30 am
Mon, Feb 27
82 °FPartly sunny.6 mph62%29.92 "HgN/A
9:00 am81 °FBroken clouds.2 mph62%29.92 "HgN/A
8:30 am79 °FPartly sunny.3 mph70%29.92 "HgN/A
8:00 am79 °FWarm.1 mph70%29.92 "HgN/A
7:30 am75 °FSunny.No wind78%29.89 "Hg10 mi
7:00 am73 °FSunny.3 mph78%29.89 "Hg10 mi
6:30 am70 °FMild.1 mph83%29.89 "HgN/A
6:00 am68 °FSunny.1 mph88%29.89 "Hg10 mi
5:30 am68 °FPassing clouds.2 mph88%29.89 "HgN/A
5:00 am68 °FMild.No wind83%29.86 "HgN/A
4:30 am68 °FMild.2 mph83%29.86 "HgN/A
4:00 am68 °FClear.No wind88%29.86 "Hg10 mi
3:30 am70 °FClear.No wind78%29.86 "Hg10 mi
3:00 am68 °FClear.No wind88%29.86 "Hg10 mi
2:30 am70 °FClear.2 mph83%29.86 "Hg10 mi
2:00 am70 °FClear.No wind83%29.86 "Hg10 mi
1:30 am70 °FClear.2 mph83%29.86 "Hg10 mi
1:00 am70 °FClear.2 mph83%29.89 "Hg10 mi
12:30 am70 °FMild.1 mph83%29.89 "HgN/A
12:00 am70 °FClear.1 mph83%29.89 "Hg10 mi
11:30 pm
Sun, Feb 26
72 °FClear.1 mph83%29.89 "Hg10 mi
11:00 pm72 °FClear.No wind83%29.89 "Hg10 mi
10:30 pm73 °FClear.2 mph78%29.89 "Hg10 mi
10:00 pm75 °FClear.2 mph74%29.89 "Hg10 mi
9:30 pm73 °FClear.6 mph78%29.89 "Hg10 mi
9:00 pm73 °FPassing clouds.3 mph83%29.89 "HgN/A
8:30 pm75 °FClear.5 mph78%29.89 "Hg10 mi
8:00 pm75 °FClear.5 mph83%29.89 "Hg10 mi
7:30 pm75 °FClear.5 mph83%29.86 "Hg10 mi
7:00 pm77 °FClear.5 mph79%29.86 "Hg10 mi
6:30 pm77 °FClear.6 mph79%29.83 "Hg10 mi
6:00 pm77 °FSunny.6 mph79%29.83 "Hg10 mi
5:30 pm77 °FSunny.6 mph79%29.83 "Hg10 mi
5:00 pm77 °FOvercast.7 mph74%29.83 "HgN/A
4:30 pm77 °FMostly cloudy.7 mph79%29.83 "HgN/A
4:00 pm79 °FBroken clouds.1 mph70%29.83 "HgN/A
3:30 pm79 °FWarm.5 mph79%29.83 "HgN/A
3:00 pm79 °FWarm.8 mph79%29.80 "HgN/A
2:30 pm81 °FOvercast.7 mph74%29.83 "HgN/A
2:00 pm81 °FOvercast.6 mph70%29.80 "HgN/A
1:30 pm81 °FPartly sunny.8 mph74%29.80 "HgN/A
1:00 pm84 °FPartly sunny.6 mph62%29.80 "HgN/A
12:30 pm84 °FSunny.10 mph62%29.83 "Hg10 mi
12:00 pm84 °FPassing clouds.9 mph62%29.83 "HgN/A
11:30 am84 °FPassing clouds.5 mph55%29.83 "HgN/A
11:00 am82 °FSunny.3 mph62%29.83 "Hg10 mi
10:30 am81 °FPassing clouds.6 mph66%29.83 "HgN/A
10:00 am77 °FSunny.9 mph74%29.86 "Hg10 mi
Weather by CustomWeather, © 2017

See weather overviewHow to use our weather pages